Temperature
19 19 19 18 18 18 17 17 17 17 17 17 17 16 16 16 16 16 16 16 16 16 16 16 16 16 15 15 15 15 15 15 15 15 14 14 14 14 14 13 13 13 13
19 19 19 18 18 18 17 17 17 17 17 16 16 16 16 16 16 16 16 15 15 15 15 15 15 15 15 15 15 15 15 15 14 14 14 14 13 13 13 13 13 13 13
19 19 19 18 18 18 17 17 17 17 17 16 16 16 16 16 16 16 15 15 15 15 15 15 15 15 15 14 15 14 14 14 14 14 13 13 13 13 13 12 12 12 12
19 19 18 18 18 17 17 17 17 17 16 16 16 16 16 16 16 15 15 15 15 15 15 15 14 14 14 14 14 14 14 14 13 13 13 13 13 12 12 12 12 11 11
19 18 18 18 18 17 17 17 17 16 16 16 15 15 15 15 15 15 15 14 14 14 14 14 14 14 14 14 13 13 13 13 13 13 12 12 12 11 11 11 11 11 11
19 18 18 18 17 17 17 16 16 16 16 15 15 15 15 15 15 15 14 14 14 14 13 13 13 13 13 13 13 13 13 12 12 12 12 11 11 11 11 11 11 11 10
19 18 18 18 17 17 16 16 16 16 15 15 15 14 14 14 14 14 14 14 13 13 13 13 12 12 12 12 12 12 12 12 12 11 11 11 11 10 10 10 10 10 10
18 18 18 17 17 17 16 16 16 15 15 15 14 14 14 14 14 14 13 13 13 13 12 12 12 12 12 12 11 11 11 11 11 11 11 10 10 10 10 10 10 9 9
18 18 17 17 17 17 16 16 15 15 14 14 14 13 13 13 13 13 13 13 12 12 12 12 11 11 11 11 11 11 11 10 10 10 10 10 10 10 10 10 9 10 9
18 17 17 17 16 16 16 15 15 14 14 14 13 13 13 13 13 13 12 12 12 12 11 11 11 11 11 11 10 10 10 10 10 9 9 9 9 9 9 9 9 9 10
17 17 17 16 16 16 15 15 14 14 13 13 13 13 12 12 12 12 12 11 11 11 11 10 10 11 10 10 10 10 10 9 9 9 9 9 9 9 9 9 9 9 9
17 16 16 16 15 15 15 14 14 13 13 13 12 12 12 12 12 12 12 11 11 10 10 10 10 10 10 10 10 9 9 9 9 9 9 9 9 8 8 8 8 8 8
17 16 16 15 15 14 14 14 13 13 12 12 12 11 11 11 11 11 11 11 11 10 10 10 10 9 9 9 9 9 9 9 9 9 9 9 8 8 8 8 8 8 8
16 16 15 15 14 14 13 13 12 12 12 12 11 11 11 10 10 10 10 10 10 10 9 9 9 9 9 9 8 8 8 8 8 9 8 8 8 8 8 8 8 8 8
15 15 14 14 14 13 13 13 12 12 12 11 11 11 11 10 10 10 10 9 9 9 9 9 9 9 8 8 8 8 8 8 8 8 8 8 8 8 8 8 7 8 8
15 14 14 14 13 13 13 12 12 12 11 11 11 10 10 10 10 10 9 9 9 9 9 9 9 9 9 8 8 8 8 8 8 8 8 8 8 8 8 7 7 8 8
14 14 13 13 13 12 12 12 11 11 11 11 10 10 10 10 9 9 9 9 9 9 9 9 9 8 8 8 8 8 8 8 7 8 8 8 7 8 7 7 7 7 7
14 14 13 13 13 12 12 11 11 10 10 10 10 10 9 9 9 9 9 8 8 8 9 9 8 8 8 8 8 8 8 8 7 7 7 7 7 7 7 7 7 7 7
13 13 13 13 12 12 11 11 10 10 10 10 9 9 9 9 8 8 8 8 9 9 9 8 8 8 8 8 8 8 7 7 7 7 7 7 7 7 7 7 7 7 7
13 13 13 12 12 11 11 11 10 10 10 10 9 9 9 9 9 8 8 8 8 8 8 8 8 8 8 8 7 7 7 7 7 7 7 7 7 7 7 7 7 7 7
12 12 12 12 11 11 11 11 10 10 10 10 9 9 9 9 9 9 9 8 8 8 8 8 8 8 8 7 7 7 7 7 7 7 7 7 7 7 7 7 7 7 7
12 12 12 11 11 11 10 10 10 10 10 10 9 9 9 9 9 9 8 8 8 8 8 8 8 8 7 7 7 7 7 7 7 7 7 7 7 7 7 7 7 7 7
11 11 11 11 11 10 10 10 10 10 10 10 9 9 9 9 9 8 8 8 8 8 8 7 7 7 7 7 7 7 7 7 7 6 6 6 7 7 7 6 6 6 6
11 11 11 11 10 10 10 10 10 10 10 10 9 9 9 9 8 8 8 8 8 8 7 7 7 7 7 7 7 7 6 6 6 6 6 6 6 6 6 6 6 6 6
11 11 11 10 10 10 10 10 10 10 10 9 9 9 9 9 8 8 8 8 8 8 7 7 7 7 6 6 6 6 6 6 6 6 6 6 6 6 6 6 6 6 6
10 10 10 10 10 10 10 10 10 9 9 9 9 9 9 9 8 8 8 8 8 7 7 7 7 6 6 6 6 6 6 6 6 6 6 6 5 5 5 5 5 5 5
Wind_Speed
5 4 3 2 2 2 1 0 0 0 1 0 0 0 1 1 1 1 1 1 1 1 1 2 2 3 2 2 2 3 3 3 3 3 1 1 2 2 3 4 4 5 8
6 5 4 3 3 2 2 1 1 1 1 1 0 1 1 1 1 1 1 0 0 0 1 1 2 2 2 2 2 2 2 2 3 3 1 1 1 2 3 3 4 6 8
6 6 5 4 3 2 2 2 2 2 2 2 2 2 2 2 2 2 2 2 2 2 2 2 2 2 2 2 2 2 1 1 1 2 1 0 1 1 2 3 4 4 5
7 6 5 4 3 3 3 3 3 3 3 3 3 3 3 3 3 3 3 3 4 4 4 4 4 4 3 2 1 1 1 1 2 2 2 1 1 1 1 1 2 2 3
7 7 6 5 5 4 4 3 3 4 4 4 4 4 4 4 4 4 4 4 5 5 6 6 7 8 9 7 4 4 3 1 1 2 2 1 1 1 1 0 1 2 3
7 7 6 6 6 5 5 5 5 5 5 5 5 5 5 5 9 8 5 5 5 5 6 6 7 8 10 10 11 11 8 4 3 2 2 2 1 1 0 0 1 1 1
7 7 7 7 6 6 6 6 6 5 5 6 6 6 7 8 9 8 7 6 6 6 6 5 5 6 7 7 8 9 10 9 6 4 3 3 2 1 1 1 1 1 2
8 7 7 7 7 7 6 6 6 5 6 6 5 6 7 7 7 7 6 6 7 7 6 6 6 6 6 5 6 7 8 8 7 5 5 4 4 3 1 1 2 3 3
8 7 6 6 7 8 7 6 6 6 6 6 5 6 6 6 7 5 4 6 6 7 6 6 5 6 6 5 5 7 7 7 9 9 7 6 7 7 5 2 2 2 2
7 7 6 6 7 7 7 7 6 6 6 6 6 6 6 6 7 6 4 4 5 5 5 6 9 7 7 6 5 5 6 5 5 6 6 5 5 6 5 3 2 1 1
7 8 7 7 7 7 7 7 7 7 7 6 7 6 6 6 7 8 7 3 4 4 4 5 6 8 8 7 5 5 4 2 4 4 5 5 5 5 6 6 5 4 3
8 8 8 7 7 7 8 7 7 7 7 7 6 5 5 5 6 6 7 7 5 5 5 5 6 7 8 7 6 5 3 2 2 3 4 5 5 5 6 6 7 7 6
9 8 8 8 7 7 8 8 7 6 5 5 5 4 4 4 5 6 6 7 6 5 6 8 7 5 5 7 7 3 2 2 3 4 4 4 5 5 4 3 4 4 4
9 8 8 8 7 7 5 5 5 5 4 4 4 4 4 4 4 4 5 5 6 6 6 8 7 4 4 5 4 3 4 4 4 4 4 4 4 3 3 3 3 3 2
9 8 8 7 7 7 5 3 3 3 2 2 3 4 4 4 3 4 2 3 3 4 4 5 5 4 4 4 4 4 3 3 3 3 3 3 3 3 3 3 3 2 2
8 8 7 7 7 7 7 6 9 7 8 7 6 3 4 6 7 5 5 5 3 0 2 4 4 4 3 3 3 3 3 3 3 3 3 3 3 3 3 3 3 3 3
7 7 6 7 7 7 7 7 6 6 7 7 6 6 6 7 7 5 5 4 2 3 2 4 3 3 3 2 2 2 2 3 2 2 2 2 2 2 2 2 2 3 3
7 7 7 6 6 6 6 6 6 6 6 5 5 6 7 6 6 5 5 5 4 3 2 3 3 3 2 1 1 1 1 2 1 1 2 2 2 2 2 2 2 3 4
6 6 6 6 6 6 6 6 6 6 6 6 7 6 6 7 6 4 5 3 3 3 2 2 1 2 1 1 1 1 1 1 1 1 1 1 2 2 3 3 3 2 4
6 7 6 6 6 6 6 6 6 6 6 6 6 6 8 7 6 5 4 3 2 2 2 2 1 1 1 1 1 1 1 0 1 1 1 2 2 3 3 4 4 4 4
6 7 8 7 6 7 6 6 6 6 6 6 5 5 4 6 5 5 4 4 3 3 3 2 2 2 2 2 2 1 1 1 1 2 2 3 3 4 4 5 5 5 5
6 7 7 6 6 6 6 6 6 6 6 6 6 7 6 5 4 4 4 4 3 3 3 2 2 2 2 2 2 2 2 2 2 3 4 4 4 5 5 5 6 6 6
7 7 7 6 6 6 6 6 6 6 6 6 6 6 7 5 4 3 3 3 3 3 3 3 3 3 2 2 2 3 3 3 3 4 5 5 5 5 6 6 7 8 7
6 7 7 6 6 6 6 6 6 6 6 6 5 6 5 5 4 4 4 3 3 4 4 4 3 3 3 3 4 4 3 4 5 5 6 6 7 7 7 7 8 9 9
6 6 6 6 6 6 6 6 6 6 5 5 5 5 5 5 5 5 4 4 4 4 5 5 4 4 4 4 4 3 2 2 4 6 6 7 7 8 8 9 9 9 9
6 6 6 6 6 5 5 6 6 6 6 5 5 5 5 5 5 5 5 4 5 5 5 5 5 5 5 5 3 2 1 3 4 6 7 8 8 8 8 9 10 10 10
Wind_Direction
161 159 156 156 160 161 159 154 75 9 4 348 298 322 337 338 328 308 288 264 241 261 269 260 268 283 286 279 268 261 257 241 241 266 247 128 95 63 81 82 83 78 75
158 155 153 148 143 139 120 104 94 75 40 23 21 37 21 22 20 18 333 7 269 342 348 341 318 311 314 311 302 279 268 245 219 225 226 159 105 83 79 75 73 74 77
154 153 148 141 135 130 117 108 94 81 65 64 57 49 43 47 53 51 50 50 51 46 38 25 359 346 341 343 330 318 297 223 173 181 193 111 87 79 86 91 81 77 80
155 152 145 137 128 123 114 110 98 89 83 74 66 60 60 59 62 65 71 68 62 52 44 39 25 15 3 3 22 27 45 110 135 150 145 121 92 83 74 104 101 85 65
154 151 144 136 125 120 115 109 106 95 88 84 78 69 61 61 57 64 78 76 71 64 58 55 53 53 45 38 41 42 46 62 92 109 115 97 64 66 22 347 108 118 84
153 148 141 135 130 126 112 99 94 88 83 82 79 76 67 62 53 47 55 78 73 70 68 65 68 68 70 68 61 55 46 50 58 70 76 76 49 9 332 135 118 130 80
148 147 143 141 135 126 119 114 108 102 95 87 84 83 80 67 55 55 52 75 77 72 69 66 67 68 70 78 86 86 69 55 45 52 64 44 45 25 353 90 78 70 69
148 148 145 144 134 126 123 118 114 111 104 96 91 91 90 77 60 60 61 84 82 78 73 70 71 67 57 62 82 80 73 60 54 61 63 46 38 17 358 97 130 130 118
149 148 149 146 137 132 129 127 122 118 111 107 100 97 95 83 55 42 36 93 89 82 74 66 66 73 41 28 84 86 81 80 80 78 72 69 60 42 20 49 100 124 108
150 144 141 140 137 136 133 130 126 125 120 112 99 92 90 86 56 30 2 100 98 96 88 79 65 59 36 21 77 85 85 77 77 88 90 89 77 70 52 27 19 54 74
142 137 137 138 137 135 132 131 131 128 120 112 104 94 87 83 75 45 17 65 93 98 94 88 74 59 50 37 47 74 60 50 88 87 85 78 74 66 57 49 27 16 19
142 141 140 141 139 136 135 136 138 138 134 128 120 111 99 90 76 66 47 43 44 92 89 89 87 76 68 54 61 47 344 312 84 80 73 66 60 58 57 54 51 48 43
144 142 142 140 137 140 144 146 148 151 149 142 141 131 119 110 103 94 80 66 52 81 87 81 91 102 115 90 70 25 353 60 71 73 71 66 63 58 58 75 84 83 81
147 146 146 145 140 136 140 147 149 150 152 149 145 140 135 131 128 128 126 121 124 114 110 118 125 105 96 91 103 74 59 50 52 68 71 71 69 66 49 37 40 44 52
147 148 149 147 142 139 130 107 129 109 99 137 144 149 152 148 108 54 99 120 117 116 131 133 126 119 107 94 87 75 68 70 65 63 64 65 63 59 49 36 18 11 17
151 154 153 150 148 147 139 119 59 70 73 62 49 68 99 93 111 105 85 75 78 130 169 126 121 117 108 99 94 92 82 67 61 60 58 52 48 48 39 29 13 5 8
155 156 156 155 154 154 152 151 140 107 86 78 73 77 94 115 122 126 126 131 159 207 159 122 119 115 111 105 95 82 82 80 55 46 43 35 24 15 10 7 0 354 353
155 151 155 155 156 157 158 159 156 152 146 133 111 107 120 132 140 154 169 171 158 177 143 124 123 121 115 104 102 91 84 86 75 33 25 13 2 348 346 339 348 348 336
155 155 154 151 154 157 158 161 159 156 152 147 144 139 149 154 159 175 197 195 151 150 149 146 143 135 133 134 117 105 79 62 21 320 351 343 332 325 329 326 327 327 302
147 138 149 152 153 157 160 162 161 160 161 161 162 159 158 167 166 166 180 191 186 168 165 165 156 160 171 184 182 186 189 206 231 266 326 322 315 312 313 312 316 313 305
152 151 155 156 159 161 162 165 167 169 169 168 168 154 172 181 176 173 182 189 201 196 185 187 185 190 186 193 202 202 228 266 293 306 311 310 307 307 305 306 304 302 303
160 164 168 166 165 168 169 173 173 173 175 176 168 158 176 208 194 186 190 195 198 200 195 202 209 202 204 214 234 261 276 286 295 299 301 300 296 296 298 300 304 307 301
169 167 168 169 169 165 175 178 178 179 181 183 178 171 178 197 199 200 203 204 209 209 206 212 221 222 225 240 253 264 275 291 299 302 297 295 296 296 297 300 300 299 301
169 168 168 170 172 175 180 181 184 187 187 187 189 189 188 192 203 207 212 206 210 214 216 219 226 230 240 257 264 267 291 317 309 295 292 292 293 295 296 296 295 298 297
170 169 172 177 181 182 183 185 188 193 196 198 196 195 195 198 206 210 212 211 213 216 218 223 227 230 239 252 270 291 2 349 314 301 288 284 287 292 295 296 296 297 296
177 178 178 177 177 180 183 190 196 199 202 202 199 201 203 204 210 211 208 209 215 216 221 228 234 238 245 251 256 269 279 284 286 288 282 280 284 286 292 291 294 293 295
Height
1557 1558 1558 1558 1559 1558 1558 1558 1558 1557 1557 1556 1556 1555 1555 1554 1554 1554 1554 1554 1554 1553 1553 1553 1553 1554 1554 1554 1554 1555 1555 1555 1555 1555 1556 1555 1555 1555 1555 1555 1555 1553 1552
1557 1557 1557 1558 1558 1558 1558 1558 1557 1557 1556 1555 1555 1554 1554 1553 1553 1553 1552 1553 1553 1552 1552 1552 1552 1552 1551 1552 1552 1552 1552 1552 1553 1552 1553 1553 1553 1553 1553 1553 1553 1552 1551
1556 1556 1557 1557 1557 1557 1557 1557 1557 1556 1556 1555 1554 1554 1553 1553 1552 1552 1552 1552 1552 1551 1551 1551 1550 1550 1550 1550 1549 1549 1549 1550 1550 1550 1550 1550 1551 1551 1551 1551 1550 1550 1549
1555 1556 1556 1557 1557 1557 1557 1556 1556 1556 1555 1555 1554 1554 1553 1553 1552 1552 1552 1551 1551 1551 1550 1550 1549 1549 1548 1548 1548 1547 1547 1547 1547 1548 1548 1548 1549 1548 1549 1549 1549 1548 1548
1554 1555 1555 1556 1556 1556 1556 1556 1555 1555 1555 1554 1554 1554 1553 1553 1552 1552 1551 1551 1551 1550 1550 1549 1548 1548 1547 1546 1546 1546 1546 1546 1546 1546 1547 1547 1547 1547 1547 1547 1547 1547 1546
1552 1553 1554 1554 1555 1555 1555 1555 1554 1555 1555 1555 1554 1554 1554 1553 1552 1552 1551 1551 1550 1550 1549 1549 1548 1547 1546 1546 1545 1545 1545 1545 1545 1546 1546 1546 1545 1545 1545 1546 1546 1546 1545
1551 1552 1552 1553 1554 1554 1555 1555 1555 1555 1555 1555 1555 1555 1554 1553 1553 1552 1551 1551 1550 1550 1550 1549 1549 1548 1547 1547 1546 1545 1545 1545 1545 1546 1545 1545 1545 1544 1544 1545 1544 1545 1544
1549 1551 1551 1552 1552 1553 1554 1555 1555 1555 1555 1555 1555 1554 1554 1553 1553 1552 1551 1551 1550 1550 1550 1549 1549 1548 1548 1548 1548 1547 1546 1546 1546 1546 1545 1545 1544 1544 1544 1544 1544 1544 1543
1548 1549 1550 1551 1551 1552 1553 1554 1554 1555 1555 1555 1555 1555 1554 1553 1553 1553 1552 1552 1551 1551 1550 1550 1550 1549 1549 1549 1549 1548 1548 1548 1547 1546 1546 1545 1544 1544 1544 1544 1544 1544 1544
1547 1548 1549 1550 1551 1551 1552 1553 1553 1554 1554 1555 1555 1555 1554 1554 1553 1553 1553 1553 1552 1552 1551 1550 1550 1550 1550 1549 1549 1549 1549 1549 1549 1548 1547 1546 1546 1545 1544 1544 1544 1544 1544
1545 1547 1548 1549 1550 1551 1551 1552 1553 1553 1554 1554 1554 1554 1554 1553 1553 1553 1552 1553 1553 1552 1552 1551 1551 1550 1550 1550 1550 1550 1549 1550 1550 1549 1549 1548 1547 1546 1546 1544 1544 1544 1544
1544 1546 1547 1548 1549 1550 1551 1551 1552 1553 1553 1554 1554 1554 1554 1554 1553 1553 1553 1552 1552 1552 1552 1552 1551 1551 1551 1551 1550 1550 1550 1551 1551 1551 1550 1550 1549 1548 1547 1545 1544 1544 1543
1543 1544 1545 1547 1548 1549 1550 1551 1551 1552 1553 1553 1554 1554 1554 1554 1553 1553 1553 1552 1552 1552 1552 1552 1552 1552 1552 1552 1552 1551 1552 1552 1552 1551 1551 1550 1550 1549 1548 1547 1546 1545 1544
1541 1543 1544 1545 1547 1548 1549 1550 1551 1552 1552 1553 1553 1553 1553 1553 1553 1553 1553 1553 1553 1553 1553 1553 1553 1553 1553 1553 1553 1553 1553 1553 1552 1552 1552 1551 1551 1550 1549 1548 1548 1547 1546
1539 1541 1543 1544 1545 1546 1547 1548 1549 1550 1551 1552 1552 1553 1553 1553 1553 1553 1553 1553 1553 1553 1554 1554 1555 1555 1555 1555 1555 1554 1554 1554 1554 1553 1553 1552 1551 1551 1550 1549 1548 1547 1546
1537 1539 1541 1542 1543 1545 1546 1547 1547 1548 1549 1550 1550 1551 1551 1552 1552 1552 1553 1553 1553 1553 1555 1555 1555 1555 1555 1556 1556 1555 1555 1555 1554 1554 1554 1553 1552 1552 1551 1550 1549 1548 1547
1536 1538 1540 1541 1542 1543 1544 1545 1546 1547 1548 1549 1550 1550 1550 1551 1551 1552 1553 1553 1553 1554 1555 1556 1556 1556 1556 1556 1556 1556 1556 1555 1555 1555 1554 1554 1553 1552 1551 1550 1550 1549 1547
1535 1536 1538 1539 1541 1542 1543 1544 1545 1546 1547 1548 1549 1549 1550 1551 1551 1552 1553 1554 1554 1555 1556 1556 1556 1556 1556 1557 1557 1557 1557 1556 1556 1555 1555 1554 1553 1553 1552 1551 1550 1548 1547
1533 1535 1537 1538 1540 1541 1542 1543 1545 1546 1547 1548 1548 1549 1550 1551 1552 1553 1553 1554 1555 1555 1556 1556 1556 1556 1556 1556 1556 1557 1557 1556 1556 1555 1555 1554 1553 1553 1552 1550 1549 1548 1546
1531 1533 1535 1536 1538 1539 1541 1542 1544 1545 1546 1547 1548 1549 1550 1551 1552 1552 1553 1554 1554 1555 1555 1555 1555 1555 1555 1556 1556 1556 1556 1556 1555 1555 1554 1554 1553 1552 1551 1550 1548 1547 1546
1530 1532 1533 1535 1536 1538 1539 1541 1543 1544 1545 1546 1547 1548 1548 1550 1551 1552 1552 1553 1553 1554 1554 1554 1554 1555 1555 1555 1555 1555 1555 1555 1555 1554 1553 1553 1552 1551 1550 1549 1547 1546 1544
1529 1530 1532 1533 1535 1536 1538 1540 1541 1543 1544 1545 1546 1546 1547 1548 1550 1550 1551 1552 1552 1552 1553 1553 1553 1553 1553 1554 1554 1554 1554 1554 1553 1553 1552 1551 1550 1549 1548 1547 1545 1544 1542
1528 1529 1530 1532 1533 1534 1536 1538 1540 1541 1542 1544 1545 1545 1546 1547 1548 1549 1549 1550 1550 1551 1551 1551 1551 1552 1552 1552 1552 1552 1552 1551 1551 1550 1549 1549 1548 1547 1546 1544 1543 1541 1540
1527 1528 1529 1531 1532 1533 1535 1536 1538 1539 1541 1542 1543 1543 1544 1545 1546 1546 1547 1548 1548 1548 1549 1549 1549 1549 1549 1549 1549 1550 1549 1548 1548 1547 1546 1546 1545 1544 1543 1541 1540 1538 1537
1525 1527 1528 1529 1530 1532 1533 1534 1536 1537 1538 1539 1540 1541 1542 1543 1543 1544 1544 1545 1545 1546 1546 1546 1546 1546 1546 1546 1546 1546 1545 1544 1544 1544 1543 1542 1542 1540 1539 1538 1536 1535 1533
1524 1525 1527 1528 1529 1530 1531 1532 1534 1535 1536 1537 1538 1539 1540 1540 1541 1541 1542 1542 1542 1542 1543 1543 1543 1543 1543 1543 1542 1541 1541 1540 1540 1539 1539 1538 1537 1536 1535 1533 1532 1531 1529